Regional Weather Roundup
Issued by NWS State College, PA

Home | Current Version | Previous Version | Graphics & Text | Print | Product List | Glossary Off
Versions: 1 2 3 4 5 6 7 8 9 10 11 12 13 14 15 16 17 18 19 20 21 22 23 24 25 26 27 28 29 30 31 32 33 34 35 36 37 38 39 40 41 42 43 44 45 46 47 48 49 50

000
ASUS41 KCTP 310603
RWRCTP

REGIONAL WEATHER ROUNDUP
NATIONAL WEATHER SERVICE STATE COLLEGE PA
100 AM EST SAT JAN 31 2015

Note: "fair" indicates few or no clouds below 12,000 feet with no
significant weather and/or obstructions to visibility.

* = STATION THAT DOES NOT REPORT PRECIPITATION /E.G. RAIN...SNOW...ETC/
    THUNDER OR FOG.

PAZ002>004-007>009-013>016-020>023-029>032-310700-
WESTERN PENNSYLVANIA

CITY           SKY/WX    TMP DP  RH WIND       PRES   REMARKS
ERIE           CLOUDY    15   7  70 W6        30.38F WCI   6
MEADVILLE      MOCLDY     9   5  84 W3        30.32S
FRANKLIN*      CLOUDY    10   3  72 NW8G16    30.32S WCI  -1
NEW CASTLE     FAIR       7   3  83 CALM      30.39F
BEAVER COUNTY  NOT AVBL
BUTLER*        CLOUDY    10   5  79 W5        30.36S WCI   2
PITTSBURGH INT PTCLDY     8   3  80 W5        30.37S WCI   0
PITTSBURGH     CLEAR      9   1  70 W7        30.35F WCI  -2
INDIANA*       CLOUDY    12   7  79 NW10G18   30.34S WCI  -1
LATROBE        CLOUDY    12   5  73 W8        30.38R WCI   1
WASHINGTON CO* CLEAR      5   0  78 CALM      30.39S
$$

PAZ004>006-010>012-017>019-024>028-033>037-041-042-045-046-049>053-310700-
CENTRAL PENNSYLVANIA

CITY           SKY/WX    TMP DP  RH WIND       PRES   REMARKS
BRADFORD       MIX PCPN   4  -2  76 NW20G29   30.18F WCI -17
DUBOIS         CLOUDY     8   2  76 NW13      30.23F WCI  -8
CLEARFIELD     CLOUDY     8  -1  66 NW10      30.25F WCI  -6
JOHNSTOWN      LGT SNOW   8   2  76 W23G32    30.17F WCI -13
ALTOONA        CLOUDY    23   4  44 NW14G24   30.24S WCI  11
STATE COLLEGE  PTCLDY     9  -1  64 W9G20     30.25S WCI  -5
WILLIAMSPORT   PTCLDY    10  -2  58 W13       30.25S WCI  -5
SELINSGROVE    CLEAR     12  -1  56 NW12G22   30.26S WCI  -2
FT INDIANTOWN  CLEAR     13  -2  50 W10G22    30.21S WCI   0
CAPITAL CITY   CLEAR     14   0  53 NW15G25   30.25S WCI  -1
HARRISBURG     PTCLDY    14   1  56 NW21G31   30.24R WCI  -4
YORK           CLEAR     14  -1  51 NW12      30.23R WCI   0
$$

PAZ038>040-043-044-047-048-054-055-060>062-067>071-310700-
EASTERN PENNSYLVANIA

CITY           SKY/WX    TMP DP  RH WIND       PRES   REMARKS
SCRANTON       CLOUDY    11  -1  58 N12G28    30.13S WCI  -3
MOUNT POCONO   LGT SNOW   7  -2  66 NW25G41   29.93F WCI -15
ALLENTOWN      PTCLDY    14  -1  51 NW13G22   30.14S WCI   0
QUAKERTOWN*    CLEAR     14   0  52 NW10G18   30.12F WCI   1
READING        CLEAR     14   0  53 NW26G40   30.17F WCI  -6
LANCASTER      CLEAR     13  -1  54 NW16G24   30.20S WCI  -3
COATESVILLE    CLEAR     16   1  53 NW23G29   30.14S WCI  -2
POTTSTOWN      CLEAR     14   0  53 NW14G22   30.16S WCI  -1
BLUE BELL      CLEAR     18   3  53 NW10G22   30.13R WCI   6
DOYLESTOWN     PTCLDY    13   0  56 NW16G25   30.11R WCI  -3
WILLOW GROVE   NOT AVBL
NORTH PHILA    FAIR      19   0  43 NW20G30   30.14R WCI   3
PHILADELPHIA   CLEAR     19   0  43 NW23G31   30.16S WCI   2
$$


USA.gov is the U.S. government's official web portal to all federal, state and local government web resources and services.